Torna al catalogo

COROT

AttivoScienzaPO
NORAD 29678·PAYLOAD·🇫🇷 France

Lanciato Dec 27, 2006 da Baikonur Cosmodrome

Loading…

Prossimi Passaggi (prossime 24 ore)

TLE

AggiornatoSource: Space-Track

Epoca: Sep 14, 2026, 15:12 UTC

1 29678U 06063A   26257.63401385  .00001175  00000-0  23724-3 0  9994
2 29678  90.1063  38.2270 0185484 177.3035 182.9220 14.50510927 27941

Traccia COROT in tempo reale con AllMySat

Download on the App Store